Torna al catalogo

FENGYUN 1C DEB

AttivoPO
NORAD 30899·DEBRIS·🇨🇳 China

Lanciato May 10, 1999 da Taiyuan Satellite Launch Center

Loading…

Prossimi Passaggi (prossime 24 ore)

TLE

AggiornatoSource: Space-Track

Epoca: Sep 12, 2026, 13:59 UTC

1 30899U 99025AYM 26255.58265166  .00003282  00000-0  11530-2 0  9990
2 30899  99.1664 174.8278 0029368 212.7637 272.1367 14.35454889  5171

Traccia FENGYUN 1C DEB in tempo reale con AllMySat

Download on the App Store